Starlink 5301

decayed
NORAD ID: 55270 Int'l Des: 2023-010 Owner: SPXS Country: US Constellation: starlink
LEOCIRCULAR
Gruppe

Über Starlink 5301

Beschreibung wird geladen...

Höhenverlauf

Altitude vs Time

uPlot chart will show altitude changes over time

Zweizeiliger Elementsatz

1 55270U 23010B 25056.69312450 .18020015 45033-5 23167-3 0 9992
2 55270 69.9792 258.9976 0007783 255.1062 221.8403 16.49176874116387
Epoch: 25. Feb. 2025 • Age: 6847 hours

Aktueller Status

Höhe 2480.9 km
Geschwindigkeit 6.14 km/s
Subsatellitenpunkt -43.75°S, 120.08°E
Startdatum 19. Jan. 2023
Alter 2.8 years
Verglühungsdatum 25. Feb. 2025
Typ internet

Technische Details

Klassifizierung Payload
Masse 305.00 kg
Trockenmasse 290.00 kg
Gesamtmasse 305.00 kg
Länge 0.20 m
Durchmesser 2.80 m
Spannweite 9.00 m
Form Box + pan
Hersteller SPXS
Bus-Typ Starlink
Phasenstatus Unknown Transfer Status
Besitzer/Staat SPXS/US

Große Konstellationen

Loading constellations...